Location: Aranbee
(34.0885°N, 118.2342°W)
Time: 05:00:27
(UTC+00:00)

deb Explorer IX - Pass Details

Date: 01 December 2020
Orbit: 536 x 1104 km, 38.8° (Epoch: 17 January)

Event Time Altitude Azimuth Distance (km) Brightness Sun altitude
Rises 02:17:07 0° 282° (WNW) 3,467 ? -19.0°
Reaches altitude 10° 02:19:56 10° 287° (WNW) 2,429 ? -19.6°
Maximum altitude 02:25:28 52° 4° (N) 908 ? -20.7°
Enters shadow 02:26:35 43° 45° (NE) 993 ? -20.9°
